This is the latest recevied weather packets stored in our database for station/object 9W8AKN-L. If no packets are shown the sender has not sent any weather packets the latest 10 day(s).
| Time | Temp. | Humidity | Pressure | Rain* | Wind** | Luminosity | Snow |
|---|---|---|---|---|---|---|---|
| 1777513634 | 27.78° C | 85% | 1011.2 hPa | - | - | - | - |
| 1777512734 | 27.78° C | 85% | 1011.1 hPa | - | - | - | - |
| 1777511834 | 27.78° C | 86% | 1011.2 hPa | - | - | - | - |
| 1777510934 | 27.78° C | 89% | 1011.1 hPa | - | - | - | - |
| 1777510033 | 27.78° C | 94% | 1010.8 hPa | - | - | - | - |
| 1777509133 | 27.78° C | 95% | 1010.9 hPa | - | - | - | - |
| 1777508233 | 27.78° C | 97% | 1010.8 hPa | - | - | - | - |
| 1777507333 | 27.22° C | 100% | 1010.5 hPa | - | - | - | - |
| 1777506433 | 27.22° C | 100% | 1010.5 hPa | - | - | - | - |
| 1777505533 | 27.22° C | 100% | 1010.2 hPa | - | - | - | - |
| 1777504633 | 27.22° C | 99% | 1010 hPa | - | - | - | - |
| 1777503733 | 27.22° C | 99% | 1009.7 hPa | - | - | - | - |
| 1777502833 | 27.22° C | 99% | 1009.6 hPa | - | - | - | - |
| 1777501933 | 27.22° C | 99% | 1009.4 hPa | - | - | - | - |
| 1777501033 | 27.22° C | 98% | 1009.2 hPa | - | - | - | - |
| 1777500133 | 27.22° C | 98% | 1009.1 hPa | - | - | - | - |
| 1777499232 | 27.22° C | 97% | 1008.9 hPa | - | - | - | - |
| 1777498332 | 27.22° C | 97% | 1008.8 hPa | - | - | - | - |
| 1777497432 | 27.78° C | 97% | 1008.5 hPa | - | - | - | - |
| 1777496532 | 27.78° C | 97% | 1008.6 hPa | - | - | - | - |
| 1777495631 | 27.78° C | 97% | 1008.5 hPa | - | - | - | - |
| 1777493839 | 27.78° C | 96% | 1008.8 hPa | - | - | - | - |
| 1777492939 | 27.78° C | 96% | 1009 hPa | - | - | - | - |
| 1777492039 | 27.78° C | 96% | 1009 hPa | - | - | - | - |
| 1777491139 | 27.78° C | 95% | 1009.1 hPa | - | - | - | - |
* Rain since midnight (hover to see other rain measurements)
** Current wind speed in m/s (hover to see current wind gust speed)